Regional Weather Roundup
Issued by NWS Jackson, KY

Home | Current Version | Previous Version | Graphics & Text | Print | Product List | Glossary On
Versions: 1 2 3 4 5 6 7 8 9 10 11 12 13 14 15 16 17 18 19 20 21 22 23 24 25 26 27 28 29 30 31 32 33 34 35 36 37 38 39 40 41 42 43 44 45 46 47 48 49 50
000
ASUS43 KJKL 241310
RWRJKL

EAST KENTUCKY HOURLY WEATHER ROUNDUP
NATIONAL WEATHER SERVICE JACKSON KY
900 AM EDT SUN MAY 24 2015

NOTE: "FAIR" INDICATES FEW OR NO CLOUDS BELOW 12,000 FEET WITH
NO SIGNIFICANT WEATHER AND/OR OBSTRUCTIONS TO VISIBILITY.

* THESE REPORTS ARE NOT UNDER NWS QUALITY CONTROL AND MAY NOT
  REPORT WEATHER SUCH AS PRECIPITATION AND FOG.

KYZ079-080-083-085-087-088-110-112-115-119-120-241400
...EASTERN KENTUCKY...

CITY           SKY/WX    TMP DP  RH WIND       PRES   REMARKS
JACKSON        SUNNY     65  50  58 VRB3      30.35S
LONDON         SUNNY     66  52  60 S7        30.34S
SOMERSET*      MOSUNNY   64  54  68 S3        30.34S
MONTICELLO*    SUNNY     68  53  58 SE7       30.35R
MIDDLESBORO*   SUNNY     60  55  83 CALM      30.38S
HARLAN APT*    SUNNY     61  52  72 CALM      30.38S
HAZARD APT*    SUNNY     64  55  72 CALM      30.36R
BLACK MTN*       N/A     61  45  55 SW10        N/A
PIKEVILLE APT* MOSUNNY   66  50  55 S3        30.37R
BIG SANDY*     MOSUNNY   67  51  56 S5        30.36S
MOREHEAD APT*  SUNNY     66  54  63 CALM      30.35S
$$

KYZ035-036-041-042-044-050-067-078-099-241400
...CENTRAL KENTUCKY...

CITY           SKY/WX    TMP DP  RH WIND       PRES   REMARKS
MT STERLING*   SUNNY     70  52  52 S6        30.33F
FLEMING/MASON* SUNNY     70  54  56 S5        30.32F
DANVILLE*      MOSUNNY   68  54  60 S6        30.32S
RICHMOND*      MOSUNNY   70  52  52 S5        30.31S
LEXINGTON      MOSUNNY   71  52  50 S12       30.30S
FRANKFORT      MOSUNNY   70  53  54 MISG      30.28S
$$

KYZ091>093-OHZ055-061-077-WVZ005-015-034-035-042-241400
...SOUTHERN OHIO/WEST VIRGINIA...

CITY           SKY/WX    TMP DP  RH WIND       PRES   REMARKS
COVINGTON      PTSUNNY   69  54  58 S7        30.29R
COLUMBUS       PTSUNNY   67  48  50 SE5       30.32S
DAYTON         MOSUNNY   69  50  50 S10       30.30S
WILMINGTON     MOSUNNY   70  46  42 S9        30.30S
HUNTINGTON     SUNNY     61  54  77 CALM      30.33S
CHARLESTON     MOSUNNY   59  51  75 CALM      30.35R
PINEVILLE*     SUNNY     59  54  85 MISG      30.45R
BECKLEY        SUNNY     64  46  52 S6        30.42R
BLUEFIELD      SUNNY     67  45  45 CALM      30.44R
$$

VAZ002-007-008-TNZ017-027-036-066-071-241400
...SOUTHWEST VIRGINIA/EAST TENNESSEE...

CITY           SKY/WX    TMP DP  RH WIND       PRES   REMARKS
WISE*          SUNNY     64  41  42 S7        30.43R
JONESVILLE*    SUNNY     64  52  63 E3        30.40S
ABINGDON*      SUNNY     65  48  53 SE6       30.42R
BRISTOL        MOSUNNY   63  51  65 E5        30.39F
KNOXVILLE      MOSUNNY   65  56  72 N3        30.36R
OAK RIDGE      SUNNY     65  55  70 CALM      30.38S
CROSSVILLE     SUNNY     66  53  63 S8        30.36S
NASHVILLE      PTSUNNY   71  54  54 S9        30.26S
$$

...KEY TO REMARKS...
VSB - VISIBILITY IN MILES
WCI - WIND CHILL INDEX
HX  - HEAT INDEX

$$



USA.gov is the U.S. government's official web portal to all federal, state and local government web resources and services.